Private Wetterstation Wechselburg
Wetterdaten: Sonntag, 05.12.2021
Datum Zeit Temp. +2m Bodentemp. Temp.+5cm Temp. Wind Windchill X Diff Temp. Feuchte +2m Feuchte +5cm Luftdruck Regen Wind Richtung Richtung Sonnenschein Taupunkt Windchill Windben
05.12.2021 00:00 2,2 C 6,9 C 2,3 C 2,7 C 2,7 C 0,5 C 89 % 94 % 1000,2 hPa 0,0 l/m 3,1 km/h (1 Bft) W-SW 247 0 min 0,6 C 2,7 C 10,6 km/h (2 Bft)
05.12.2021 00:05 2,3 C 6,9 C 2,4 C 2,8 C 2,8 C 0,5 C 89 % 94 % 1000,2 hPa 0,0 l/m 3,1 km/h (1 Bft) SW 225 0 min 0,7 C 2,8 C 2,4 km/h (1 Bft)
05.12.2021 00:10 2,4 C 6,9 C 2,6 C 3,2 C 3,2 C 0,8 C 89 % 95 % 1000,0 hPa 0,0 l/m 2,4 km/h (1 Bft) W-SW 247 0 min 0,8 C 3,2 C 6,6 km/h (2 Bft)
05.12.2021 00:15 2,5 C 6,9 C 2,7 C 2,8 C 2,8 C 0,3 C 89 % 95 % 1000,0 hPa 0,0 l/m 3,5 km/h (1 Bft) S-SW 202 0 min 0,9 C 2,8 C 9,0 km/h (2 Bft)
05.12.2021 00:20 2,7 C 6,9 C 2,7 C 2,6 C 2,3 C 0,0 C 89 % 95 % 1000,0 hPa 0,0 l/m 4,8 km/h (1 Bft) W-SW 247 0 min 1,1 C 1,1 C 7,4 km/h (2 Bft)
05.12.2021 00:25 2,7 C 6,9 C 2,7 C 2,5 C 2,1 C 0,0 C 89 % 95 % 1000,0 hPa 0,0 l/m 5,3 km/h (1 Bft) W-SW 247 0 min 1,1 C 0,7 C 10,1 km/h (2 Bft)
05.12.2021 00:30 2,8 C 6,9 C 2,7 C 2,6 C 2,1 C 0,0 C 89 % 95 % 1000,2 hPa 0,0 l/m 5,3 km/h (1 Bft) S-SW 202 0 min 1,2 C 0,7 C 6,8 km/h (2 Bft)
05.12.2021 00:35 2,9 C 7,0 C 2,8 C 2,8 C 2,5 C 0,0 C 89 % 95 % 1000,2 hPa 0,0 l/m 4,7 km/h (1 Bft) SO 135 0 min 1,3 C 1,4 C 9,3 km/h (2 Bft)
05.12.2021 00:40 2,9 C 6,9 C 2,8 C 2,7 C 2,3 C 0,0 C 89 % 95 % 1000,2 hPa 0,0 l/m 5,1 km/h (1 Bft) S 180 0 min 1,3 C 1,0 C 10,1 km/h (2 Bft)
05.12.2021 00:45 3,1 C 6,9 C 2,8 C 2,6 C 1,6 C 0,0 C 89 % 95 % 1000,2 hPa 0,0 l/m 7,2 km/h (2 Bft) W-SW 247 0 min 1,5 C -0,6 C 12,9 km/h (3 Bft)
05.12.2021 00:50 3,0 C 6,9 C 2,8 C 2,7 C 1,4 C 0,0 C 89 % 95 % 1000,2 hPa 0,0 l/m 7,7 km/h (2 Bft) SW 225 0 min 1,4 C -1,0 C 8,7 km/h (2 Bft)
05.12.2021 00:55 3,1 C 6,9 C 2,8 C 2,7 C 1,3 C 0,0 C 89 % 95 % 1000,2 hPa 0,0 l/m 7,7 km/h (2 Bft) W-SW 247 0 min 1,5 C -1,1 C 9,5 km/h (2 Bft)
05.12.2021 01:00 3,1 C 6,9 C 2,8 C 2,5 C 1,4 C 0,0 C 89 % 95 % 1000,2 hPa 0,0 l/m 7,4 km/h (2 Bft) S 180 0 min 1,5 C -0,9 C 6,9 km/h (2 Bft)
05.12.2021 01:05 3,1 C 6,9 C 2,7 C 2,5 C 1,2 C 0,0 C 89 % 95 % 1000,2 hPa 0,0 l/m 7,2 km/h (2 Bft) W-SW 247 0 min 1,5 C -1,1 C 8,7 km/h (2 Bft)
05.12.2021 01:10 3,1 C 6,9 C 2,7 C 2,5 C 1,3 C 0,0 C 89 % 95 % 1000,3 hPa 0,0 l/m 6,9 km/h (2 Bft) W-SW 247 0 min 1,5 C -0,9 C 7,6 km/h (2 Bft)
05.12.2021 01:15 3,1 C 6,9 C 2,7 C 2,5 C 1,4 C 0,0 C 89 % 95 % 1000,3 hPa 0,0 l/m 6,8 km/h (2 Bft) W-SW 247 0 min 1,5 C -0,7 C 13,0 km/h (3 Bft)
05.12.2021 01:20 3,2 C 6,9 C 2,7 C 2,6 C 1,4 C 0,0 C 89 % 95 % 1000,3 hPa 0,0 l/m 7,1 km/h (2 Bft) SW 225 0 min 1,6 C -0,8 C 11,1 km/h (2 Bft)
05.12.2021 01:25 3,2 C 7,0 C 2,7 C 2,7 C 1,8 C 0,0 C 89 % 95 % 1000,3 hPa 0,0 l/m 6,1 km/h (2 Bft) W-SW 247 0 min 1,6 C 0,0 C 15,9 km/h (3 Bft)
05.12.2021 01:30 3,2 C 7,0 C 2,7 C 2,9 C 2,2 C 0,0 C 89 % 95 % 1000,7 hPa 0,0 l/m 5,5 km/h (1 Bft) S 180 0 min 1,6 C 0,7 C 6,9 km/h (2 Bft)
05.12.2021 01:35 3,2 C 7,0 C 2,7 C 2,9 C 2,3 C 0,0 C 89 % 95 % 1000,7 hPa 0,0 l/m 5,1 km/h (1 Bft) W-SW 247 0 min 1,6 C 1,0 C 4,2 km/h (1 Bft)
05.12.2021 01:40 3,2 C 7,0 C 2,7 C 2,9 C 2,4 C 0,0 C 89 % 95 % 1000,7 hPa 0,0 l/m 5,0 km/h (1 Bft) W-SW 247 0 min 1,6 C 1,1 C 3,9 km/h (1 Bft)
05.12.2021 01:45 3,2 C 7,0 C 2,8 C 3,1 C 3,0 C 0,0 C 89 % 94 % 1000,7 hPa 0,0 l/m 3,7 km/h (1 Bft) S-SO 157 0 min 1,6 C 3,0 C 3,1 km/h (1 Bft)
05.12.2021 01:50 3,2 C 6,9 C 2,8 C 3,1 C 2,8 C 0,0 C 89 % 95 % 1000,8 hPa 0,0 l/m 4,3 km/h (1 Bft) SW 225 0 min 1,6 C 2,8 C 6,9 km/h (2 Bft)
05.12.2021 01:55 3,3 C 7,0 C 2,8 C 2,9 C 2,1 C 0,0 C 89 % 95 % 1000,8 hPa 0,0 l/m 6,0 km/h (2 Bft) W-SW 247 0 min 1,7 C 0,4 C 8,2 km/h (2 Bft)
05.12.2021 02:00 3,3 C 7,0 C 2,8 C 2,8 C 1,9 C 0,0 C 89 % 95 % 1000,8 hPa 0,0 l/m 6,6 km/h (2 Bft) SW 225 0 min 1,7 C -0,1 C 7,9 km/h (2 Bft)
05.12.2021 02:05 3,5 C 7,0 C 2,8 C 2,9 C 1,8 C 0,0 C 89 % 94 % 1000,8 hPa 0,0 l/m 7,4 km/h (2 Bft) SW 225 0 min 1,9 C -0,4 C 7,4 km/h (2 Bft)
05.12.2021 02:10 3,5 C 7,0 C 2,8 C 2,9 C 1,7 C 0,0 C 89 % 94 % 1000,9 hPa 0,0 l/m 7,6 km/h (2 Bft) SW 225 0 min 1,9 C -0,6 C 12,1 km/h (2 Bft)
05.12.2021 02:15 3,5 C 6,9 C 2,7 C 3,1 C 2,2 C 0,0 C 89 % 94 % 1000,9 hPa 0,0 l/m 6,3 km/h (2 Bft) SW 225 0 min 1,9 C 0,4 C 13,2 km/h (3 Bft)
05.12.2021 02:20 3,5 C 7,0 C 2,7 C 3,0 C 2,0 C 0,0 C 89 % 94 % 1000,9 hPa 0,0 l/m 6,6 km/h (2 Bft) SW 225 0 min 1,9 C 0,1 C 9,0 km/h (2 Bft)
05.12.2021 02:25 3,5 C 7,0 C 2,7 C 3,0 C 2,1 C 0,0 C 89 % 94 % 1000,9 hPa 0,0 l/m 6,4 km/h (2 Bft) S 180 0 min 1,9 C 0,2 C 6,4 km/h (2 Bft)
05.12.2021 02:30 3,5 C 7,0 C 2,7 C 3,1 C 2,2 C 0,0 C 89 % 94 % 1001,5 hPa 0,0 l/m 6,1 km/h (2 Bft) S 180 0 min 1,9 C 0,5 C 6,6 km/h (2 Bft)
05.12.2021 02:35 3,4 C 7,0 C 2,7 C 3,1 C 2,4 C 0,0 C 89 % 94 % 1001,5 hPa 0,0 l/m 5,6 km/h (1 Bft) SW 225 0 min 1,8 C 0,9 C 6,4 km/h (2 Bft)
05.12.2021 02:40 3,4 C 7,0 C 2,7 C 3,0 C 2,3 C 0,0 C 89 % 94 % 1001,5 hPa 0,0 l/m 6,0 km/h (2 Bft) SW 225 0 min 1,8 C 0,6 C 6,4 km/h (2 Bft)
05.12.2021 02:45 3,5 C 7,0 C 2,8 C 3,1 C 2,2 C 0,0 C 89 % 94 % 1001,5 hPa 0,0 l/m 6,4 km/h (2 Bft) SW 225 0 min 1,9 C 0,4 C 10,5 km/h (2 Bft)
05.12.2021 02:50 3,5 C 6,9 C 2,8 C 3,0 C 2,1 C 0,0 C 89 % 94 % 1001,9 hPa 0,0 l/m 6,6 km/h (2 Bft) SW 225 0 min 1,9 C 0,2 C 8,2 km/h (2 Bft)
05.12.2021 02:55 3,6 C 6,9 C 2,8 C 3,1 C 2,2 C 0,0 C 89 % 94 % 1001,9 hPa 0,0 l/m 6,6 km/h (2 Bft) SW 225 0 min 2,0 C 0,3 C 9,8 km/h (2 Bft)
05.12.2021 03:00 3,6 C 7,0 C 2,8 C 3,1 C 2,2 C 0,0 C 89 % 94 % 1001,9 hPa 0,0 l/m 6,6 km/h (2 Bft) SW 225 0 min 2,0 C 0,3 C 9,5 km/h (2 Bft)
05.12.2021 03:05 3,7 C 7,0 C 2,8 C 3,2 C 2,2 C 0,0 C 89 % 94 % 1001,9 hPa 0,0 l/m 6,6 km/h (2 Bft) SW 225 0 min 2,1 C 0,3 C 5,6 km/h (1 Bft)
05.12.2021 03:10 3,6 C 7,0 C 2,8 C 3,2 C 2,3 C 0,0 C 89 % 94 % 1001,9 hPa 0,0 l/m 6,6 km/h (2 Bft) SW 225 0 min 2,0 C 0,4 C 6,8 km/h (2 Bft)
05.12.2021 03:15 3,6 C 7,0 C 2,8 C 3,3 C 2,8 C 0,0 C 89 % 94 % 1001,9 hPa 0,0 l/m 5,0 km/h (1 Bft) W-SW 247 0 min 2,0 C 1,6 C 2,7 km/h (1 Bft)
05.12.2021 03:20 3,6 C 7,0 C 2,9 C 3,5 C 3,3 C 0,0 C 89 % 94 % 1001,9 hPa 0,0 l/m 3,9 km/h (1 Bft) SW 225 0 min 2,0 C 3,3 C 1,8 km/h (1 Bft)
05.12.2021 03:25 3,6 C 7,0 C 2,9 C 3,8 C 3,8 C 0,2 C 89 % 94 % 1001,9 hPa 0,0 l/m 3,1 km/h (1 Bft) W 270 0 min 2,0 C 3,8 C 2,4 km/h (1 Bft)
05.12.2021 03:30 3,6 C 7,0 C 2,9 C 3,7 C 3,7 C 0,1 C 89 % 94 % 1002,4 hPa 0,0 l/m 3,4 km/h (1 Bft) SO 135 0 min 2,0 C 3,7 C 6,1 km/h (2 Bft)
05.12.2021 03:35 3,7 C 7,0 C 2,9 C 3,5 C 3,2 C 0,0 C 89 % 94 % 1002,4 hPa 0,0 l/m 4,3 km/h (1 Bft) S-SW 202 0 min 2,1 C 3,2 C 2,4 km/h (1 Bft)
05.12.2021 03:40 3,7 C 7,0 C 3,0 C 3,5 C 3,1 C 0,0 C 89 % 94 % 1002,4 hPa 0,0 l/m 4,7 km/h (1 Bft) W-SW 247 0 min 2,1 C 2,1 C 4,8 km/h (1 Bft)
05.12.2021 03:45 3,7 C 7,0 C 2,9 C 3,5 C 3,1 C 0,0 C 89 % 94 % 1002,4 hPa 0,0 l/m 4,8 km/h (1 Bft) SW 225 0 min 2,1 C 2,0 C 6,4 km/h (2 Bft)
05.12.2021 03:50 3,8 C 7,0 C 2,9 C 3,6 C 3,1 C 0,0 C 89 % 94 % 1002,1 hPa 0,0 l/m 5,0 km/h (1 Bft) SW 225 0 min 2,2 C 1,9 C 7,7 km/h (2 Bft)
05.12.2021 03:55 3,9 C 7,0 C 2,9 C 3,6 C 2,9 C 0,0 C 89 % 94 % 1002,1 hPa 0,0 l/m 5,1 km/h (1 Bft) S 180 0 min 2,3 C 1,7 C 7,4 km/h (2 Bft)
05.12.2021 04:00 3,8 C 7,0 C 2,9 C 3,5 C 2,9 C 0,0 C 89 % 94 % 1002,1 hPa 0,0 l/m 5,1 km/h (1 Bft) SW 225 0 min 2,2 C 1,7 C 5,8 km/h (2 Bft)
05.12.2021 04:05 3,8 C 7,0 C 2,9 C 3,6 C 3,1 C 0,0 C 88 % 94 % 1002,1 hPa 0,0 l/m 4,7 km/h (1 Bft) SW 225 0 min 2,0 C 2,1 C 3,9 km/h (1 Bft)
05.12.2021 04:10 3,9 C 7,0 C 3,0 C 3,7 C 3,3 C 0,0 C 88 % 94 % 1002,4 hPa 0,0 l/m 4,2 km/h (1 Bft) SW 225 0 min 2,1 C 3,3 C 2,7 km/h (1 Bft)
05.12.2021 04:15 3,8 C 7,0 C 2,9 C 4,0 C 4,0 C 0,2 C 88 % 94 % 1002,4 hPa 0,0 l/m 2,9 km/h (1 Bft) SW 225 0 min 2,0 C 4,0 C 3,7 km/h (1 Bft)
05.12.2021 04:20 3,7 C 7,0 C 3,0 C 3,9 C 3,9 C 0,2 C 88 % 94 % 1002,4 hPa 0,0 l/m 2,6 km/h (1 Bft) W-SW 247 0 min 1,9 C 3,9 C 5,1 km/h (1 Bft)
05.12.2021 04:25 3,7 C 7,0 C 3,0 C 3,9 C 3,9 C 0,2 C 88 % 94 % 1002,4 hPa 0,0 l/m 3,1 km/h (1 Bft) W-SW 247 0 min 1,9 C 3,9 C 6,1 km/h (2 Bft)
05.12.2021 04:30 3,7 C 7,0 C 3,0 C 3,7 C 3,6 C 0,0 C 88 % 94 % 1002,8 hPa 0,0 l/m 3,5 km/h (1 Bft) NW 315 0 min 1,9 C 3,6 C 1,6 km/h (1 Bft)
05.12.2021 04:35 3,7 C 7,0 C 3,0 C 3,7 C 3,6 C 0,0 C 88 % 93 % 1002,8 hPa 0,0 l/m 3,7 km/h (1 Bft) SW 225 0 min 1,9 C 3,6 C 4,5 km/h (1 Bft)
05.12.2021 04:40 3,7 C 7,0 C 3,0 C 3,6 C 3,4 C 0,0 C 88 % 93 % 1002,8 hPa 0,0 l/m 3,9 km/h (1 Bft) S-SW 202 0 min 1,9 C 3,4 C 6,9 km/h (2 Bft)
05.12.2021 04:45 3,9 C 7,0 C 2,9 C 3,7 C 3,2 C 0,0 C 88 % 93 % 1002,8 hPa 0,0 l/m 4,5 km/h (1 Bft) W-SW 247 0 min 2,1 C 3,2 C 5,8 km/h (2 Bft)
05.12.2021 04:50 3,9 C 7,0 C 2,9 C 3,6 C 3,1 C 0,0 C 88 % 93 % 1003,1 hPa 0,0 l/m 4,7 km/h (1 Bft) S 180 0 min 2,1 C 2,1 C 7,9 km/h (2 Bft)
05.12.2021 04:55 3,8 C 7,0 C 2,9 C 3,6 C 3,2 C 0,0 C 88 % 93 % 1003,1 hPa 0,0 l/m 4,5 km/h (1 Bft) SW 225 0 min 2,0 C 3,2 C 4,2 km/h (1 Bft)
05.12.2021 05:00 3,8 C 6,9 C 2,9 C 3,6 C 3,1 C 0,0 C 88 % 93 % 1003,1 hPa 0,0 l/m 4,7 km/h (1 Bft) SW 225 0 min 2,0 C 2,1 C 7,9 km/h (2 Bft)
05.12.2021 05:05 3,8 C 6,9 C 2,9 C 3,6 C 3,2 C 0,0 C 88 % 93 % 1003,1 hPa 0,0 l/m 4,5 km/h (1 Bft) S 180 0 min 2,0 C 3,2 C 6,0 km/h (2 Bft)
05.12.2021 05:10 3,7 C 7,0 C 2,9 C 3,5 C 3,0 C 0,0 C 88 % 93 % 1002,9 hPa 0,0 l/m 4,8 km/h (1 Bft) SW 225 0 min 1,9 C 1,9 C 8,7 km/h (2 Bft)
05.12.2021 05:15 3,9 C 6,9 C 2,9 C 3,5 C 2,8 C 0,0 C 88 % 93 % 1002,9 hPa 0,0 l/m 5,5 km/h (1 Bft) SW 225 0 min 2,1 C 1,4 C 6,9 km/h (2 Bft)
05.12.2021 05:20 3,9 C 6,9 C 2,8 C 3,5 C 2,6 C 0,0 C 88 % 93 % 1002,9 hPa 0,0 l/m 6,0 km/h (2 Bft) SW 225 0 min 2,1 C 1,0 C 5,3 km/h (1 Bft)
05.12.2021 05:25 3,7 C 6,9 C 2,7 C 3,2 C 2,3 C 0,0 C 87 % 93 % 1002,9 hPa 0,0 l/m 6,0 km/h (2 Bft) SW 225 0 min 1,7 C 0,6 C 8,5 km/h (2 Bft)
05.12.2021 05:30 3,7 C 6,9 C 2,7 C 3,2 C 2,1 C 0,0 C 87 % 93 % 1002,9 hPa 0,0 l/m 6,8 km/h (2 Bft) W-SW 247 0 min 1,7 C 0,1 C 9,7 km/h (2 Bft)
05.12.2021 05:35 3,6 C 6,9 C 2,7 C 3,1 C 2,1 C 0,0 C 87 % 93 % 1002,9 hPa 0,0 l/m 6,8 km/h (2 Bft) W-SW 247 0 min 1,6 C 0,1 C 5,1 km/h (1 Bft)
05.12.2021 05:40 3,7 C 6,9 C 2,7 C 3,2 C 2,2 C 0,0 C 86 % 93 % 1002,9 hPa 0,0 l/m 6,1 km/h (2 Bft) W-SW 247 0 min 1,6 C 0,5 C 5,5 km/h (1 Bft)
05.12.2021 05:45 3,5 C 6,9 C 2,6 C 3,2 C 2,5 C 0,0 C 86 % 93 % 1002,9 hPa 0,0 l/m 5,0 km/h (1 Bft) W-SW 247 0 min 1,4 C 1,2 C 4,8 km/h (1 Bft)
05.12.2021 05:50 3,4 C 6,9 C 2,4 C 3,2 C 2,7 C 0,0 C 86 % 93 % 1002,8 hPa 0,0 l/m 4,3 km/h (1 Bft) W-SW 247 0 min 1,3 C 2,7 C 4,3 km/h (1 Bft)
05.12.2021 05:55 3,4 C 6,9 C 2,3 C 3,2 C 2,8 C 0,0 C 86 % 93 % 1002,8 hPa 0,0 l/m 3,4 km/h (1 Bft) W 270 0 min 1,3 C 2,8 C 2,6 km/h (1 Bft)
05.12.2021 06:00 3,2 C 6,9 C 2,2 C 3,1 C 2,8 C 0,0 C 86 % 93 % 1002,8 hPa 0,0 l/m 3,1 km/h (1 Bft) S-SW 202 0 min 1,1 C 2,8 C 5,5 km/h (1 Bft)
05.12.2021 06:05 3,2 C 6,9 C 2,1 C 3,1 C 2,8 C 0,0 C 86 % 93 % 1002,8 hPa 0,0 l/m 2,6 km/h (1 Bft) O-NO 67 0 min 1,1 C 2,8 C 0,0 km/h (0 Bft)
05.12.2021 06:10 3,1 C 6,9 C 2,0 C 2,9 C 2,6 C 0,0 C 86 % 93 % 1003,2 hPa 0,0 l/m 2,4 km/h (1 Bft) S 180 0 min 1,0 C 2,6 C 2,6 km/h (1 Bft)
05.12.2021 06:15 3,1 C 6,9 C 2,0 C 2,9 C 2,5 C 0,0 C 86 % 93 % 1003,2 hPa 0,0 l/m 1,3 km/h (1 Bft) W-SW 247 0 min 1,0 C 2,5 C 3,4 km/h (1 Bft)
05.12.2021 06:20 2,9 C 6,9 C 1,9 C 2,8 C 2,5 C 0,0 C 86 % 93 % 1003,2 hPa 0,0 l/m 1,3 km/h (1 Bft) SW 225 0 min 0,8 C 2,5 C 3,1 km/h (1 Bft)
05.12.2021 06:25 2,9 C 6,9 C 1,9 C 2,7 C 2,4 C 0,0 C 86 % 93 % 1003,2 hPa 0,0 l/m 1,0 km/h (0 Bft) S 180 0 min 0,8 C 2,4 C 0,0 km/h (0 Bft)
05.12.2021 06:30 2,8 C 6,9 C 1,8 C 2,6 C 2,2 C 0,0 C 86 % 93 % 1003,2 hPa 0,0 l/m 0,6 km/h (0 Bft) SW 225 0 min 0,7 C 2,2 C 2,9 km/h (1 Bft)
05.12.2021 06:35 2,8 C 6,9 C 1,7 C 2,6 C 2,1 C 0,0 C 86 % 93 % 1003,2 hPa 0,0 l/m 1,3 km/h (1 Bft) SW 225 0 min 0,7 C 2,1 C 2,4 km/h (1 Bft)
05.12.2021 06:40 2,7 C 6,9 C 1,7 C 2,5 C 2,1 C 0,0 C 87 % 93 % 1003,2 hPa 0,0 l/m 1,4 km/h (1 Bft) O 90 0 min 0,8 C 2,1 C 0,0 km/h (0 Bft)
05.12.2021 06:45 2,7 C 6,9 C 1,6 C 2,4 C 1,9 C 0,0 C 87 % 93 % 1003,2 hPa 0,0 l/m 0,5 km/h (0 Bft) SO 135 0 min 0,8 C 1,9 C 0,0 km/h (0 Bft)
05.12.2021 06:50 2,5 C 6,9 C 1,6 C 2,3 C 1,9 C 0,0 C 87 % 93 % 1003,4 hPa 0,0 l/m 0,5 km/h (0 Bft) S 180 0 min 0,6 C 1,9 C 0,0 km/h (0 Bft)
05.12.2021 06:55 2,5 C 6,9 C 1,6 C 2,3 C 1,9 C 0,0 C 87 % 93 % 1003,4 hPa 0,0 l/m 1,0 km/h (0 Bft) W-SW 247 0 min 0,6 C 1,9 C 4,8 km/h (1 Bft)
05.12.2021 07:00 2,5 C 6,9 C 1,6 C 2,3 C 1,9 C 0,0 C 87 % 93 % 1003,4 hPa 0,0 l/m 0,8 km/h (0 Bft) SO 135 0 min 0,6 C 1,9 C 0,0 km/h (0 Bft)
05.12.2021 07:05 2,4 C 6,9 C 1,7 C 2,2 C 1,9 C 0,0 C 86 % 93 % 1003,4 hPa 0,0 l/m 1,1 km/h (1 Bft) O-NO 67 0 min 0,3 C 1,9 C 3,7 km/h (1 Bft)
05.12.2021 07:10 2,4 C 6,9 C 1,7 C 2,2 C 1,9 C 0,0 C 87 % 93 % 1003,3 hPa 0,0 l/m 1,0 km/h (0 Bft) S-SO 157 0 min 0,5 C 1,9 C 2,7 km/h (1 Bft)
05.12.2021 07:15 2,5 C 6,9 C 1,7 C 2,3 C 1,9 C 0,0 C 87 % 93 % 1003,3 hPa 0,0 l/m 2,6 km/h (1 Bft) SW 225 0 min 0,6 C 1,9 C 6,6 km/h (2 Bft)
05.12.2021 07:20 2,5 C 6,9 C 1,7 C 2,2 C 1,6 C 0,0 C 87 % 93 % 1003,3 hPa 0,0 l/m 3,2 km/h (1 Bft) S-SW 202 0 min 0,6 C 1,6 C 3,1 km/h (1 Bft)
05.12.2021 07:25 2,4 C 6,9 C 1,6 C 2,3 C 2,0 C 0,0 C 87 % 93 % 1003,3 hPa 0,0 l/m 2,3 km/h (1 Bft) W 270 0 min 0,5 C 2,0 C 1,6 km/h (1 Bft)
05.12.2021 07:30 2,4 C 6,9 C 1,6 C 2,2 C 1,9 C 0,0 C 87 % 93 % 1004,0 hPa 0,0 l/m 1,6 km/h (1 Bft) SO 135 0 min 0,5 C 1,9 C 0,0 km/h (0 Bft)
05.12.2021 07:35 2,4 C 6,9 C 1,6 C 2,2 C 1,9 C 0,0 C 87 % 93 % 1004,0 hPa 0,0 l/m 1,8 km/h (1 Bft) S 180 0 min 0,5 C 1,9 C 5,6 km/h (1 Bft)
05.12.2021 07:40 2,4 C 6,9 C 1,6 C 2,2 C 1,7 C 0,0 C 87 % 93 % 1004,0 hPa 0,0 l/m 2,9 km/h (1 Bft) W-NW 292 0 min 0,5 C 1,7 C 8,2 km/h (2 Bft)
05.12.2021 07:45 2,4 C 6,9 C 1,6 C 2,1 C 1,6 C 0,0 C 87 % 93 % 1004,0 hPa 0,0 l/m 3,1 km/h (1 Bft) O-SO 112 0 min 0,5 C 1,6 C 3,2 km/h (1 Bft)
05.12.2021 07:50 2,4 C 6,9 C 1,5 C 2,2 C 1,8 C 0,0 C 87 % 93 % 1003,9 hPa 0,0 l/m 2,4 km/h (1 Bft) SO 135 0 min 0,5 C 1,8 C 2,1 km/h (1 Bft)
05.12.2021 07:55 2,3 C 6,9 C 1,5 C 2,1 C 1,7 C 0,0 C 87 % 93 % 1003,9 hPa 0,0 l/m 1,3 km/h (1 Bft) SO 135 0 min 0,4 C 1,7 C 3,5 km/h (1 Bft)
05.12.2021 08:00 2,2 C 6,9 C 1,5 C 2,0 C 1,6 C 0,0 C 87 % 93 % 1003,9 hPa 0,0 l/m 0,8 km/h (0 Bft) SO 135 0 min 0,3 C 1,6 C 2,3 km/h (1 Bft)
05.12.2021 08:05 2,3 C 6,9 C 1,5 C 2,0 C 1,5 C 0,0 C 87 % 93 % 1003,9 hPa 0,0 l/m 0,8 km/h (0 Bft) S-SO 157 0 min 0,4 C 1,5 C 1,6 km/h (1 Bft)
05.12.2021 08:10 2,3 C 6,9 C 1,4 C 2,0 C 1,5 C 0,0 C 87 % 93 % 1004,2 hPa 0,0 l/m 1,3 km/h (1 Bft) S 180 0 min 0,4 C 1,5 C 1,8 km/h (1 Bft)
05.12.2021 08:15 2,2 C 6,9 C 1,4 C 2,0 C 1,5 C 0,0 C 87 % 93 % 1004,2 hPa 0,0 l/m 1,0 km/h (0 Bft) SO 135 0 min 0,3 C 1,5 C 0,0 km/h (0 Bft)
05.12.2021 08:20 2,1 C 6,9 C 1,4 C 1,9 C 1,4 C 0,0 C 87 % 93 % 1004,2 hPa 0,0 l/m 0,5 km/h (0 Bft) SW 225 0 min 0,2 C 1,4 C 2,6 km/h (1 Bft)
05.12.2021 08:25 2,1 C 6,9 C 1,3 C 1,9 C 1,5 C 0,0 C 87 % 93 % 1004,2 hPa 0,0 l/m 1,1 km/h (1 Bft) W-SW 247 0 min 0,2 C 1,5 C 0,0 km/h (0 Bft)
05.12.2021 08:30 2,0 C 6,9 C 1,4 C 1,8 C 1,5 C 0,0 C 87 % 93 % 1004,8 hPa 0,0 l/m 1,1 km/h (1 Bft) S-SO 157 0 min 0,1 C 1,5 C 0,0 km/h (0 Bft)
05.12.2021 08:35 2,0 C 6,9 C 1,4 C 1,8 C 1,5 C 0,0 C 87 % 93 % 1004,8 hPa 0,0 l/m 0,3 km/h (0 Bft) SO 135 0 min 0,1 C 1,5 C 0,0 km/h (0 Bft)
05.12.2021 08:40 2,0 C 6,9 C 1,4 C 1,8 C 1,5 C 0,0 C 87 % 93 % 1004,8 hPa 0,0 l/m 0,2 km/h (0 Bft) SO 135 0 min 0,1 C 1,5 C 0,0 km/h (0 Bft)
05.12.2021 08:45 2,0 C 6,9 C 1,4 C 1,9 C 1,6 C 0,0 C 87 % 93 % 1004,8 hPa 0,0 l/m 0,2 km/h (0 Bft) S-SO 157 0 min 0,1 C 1,6 C 2,7 km/h (1 Bft)
05.12.2021 08:50 2,0 C 6,9 C 1,4 C 1,9 C 1,7 C 0,0 C 87 % 93 % 1005,0 hPa 0,0 l/m 0,8 km/h (0 Bft) S-SO 157 0 min 0,1 C 1,7 C 0,0 km/h (0 Bft)
05.12.2021 08:55 2,1 C 6,9 C 1,5 C 2,0 C 1,9 C 0,0 C 87 % 93 % 1005,0 hPa 0,0 l/m 1,9 km/h (1 Bft) S 180 0 min 0,2 C 1,9 C 3,5 km/h (1 Bft)
05.12.2021 09:00 2,1 C 6,9 C 1,6 C 2,1 C 2,1 C 0,0 C 87 % 93 % 1005,0 hPa 0,0 l/m 2,6 km/h (1 Bft) S-SO 157 0 min 0,2 C 2,1 C 5,1 km/h (1 Bft)
05.12.2021 09:05 2,3 C 6,9 C 1,7 C 2,2 C 1,9 C 0,0 C 88 % 93 % 1005,0 hPa 0,0 l/m 3,2 km/h (1 Bft) SO 135 0 min 0,5 C 1,9 C 4,7 km/h (1 Bft)
05.12.2021 09:10 2,3 C 6,9 C 1,8 C 2,5 C 2,5 C 0,2 C 88 % 93 % 1005,4 hPa 0,0 l/m 2,3 km/h (1 Bft) O-SO 112 0 min 0,5 C 2,5 C 4,2 km/h (1 Bft)
05.12.2021 09:15 2,3 C 6,9 C 1,9 C 2,6 C 2,6 C 0,3 C 88 % 93 % 1005,4 hPa 0,0 l/m 0,8 km/h (0 Bft) SO 135 0 min 0,5 C 2,6 C 0,0 km/h (0 Bft)
05.12.2021 09:20 2,3 C 6,9 C 1,9 C 2,6 C 2,6 C 0,3 C 88 % 93 % 1005,4 hPa 0,0 l/m 0,5 km/h (0 Bft) SW 225 0 min 0,5 C 2,6 C 0,0 km/h (0 Bft)
05.12.2021 09:25 2,3 C 6,9 C 1,9 C 2,7 C 2,7 C 0,4 C 88 % 93 % 1005,4 hPa 0,0 l/m 0,3 km/h (0 Bft) SW 225 0 min 0,5 C 2,7 C 3,1 km/h (1 Bft)
05.12.2021 09:30 2,4 C 6,9 C 2,0 C 2,8 C 2,8 C 0,4 C 88 % 92 % 1005,2 hPa 0,0 l/m 0,6 km/h (0 Bft) W-SW 247 0 min 0,6 C 2,8 C 0,0 km/h (0 Bft)
05.12.2021 09:35 2,4 C 6,9 C 2,2 C 3,0 C 3,0 C 0,6 C 88 % 93 % 1005,2 hPa 0,0 l/m 1,1 km/h (1 Bft) S-SO 157 0 min 0,6 C 3,0 C 0,0 km/h (0 Bft)
05.12.2021 09:40 2,4 C 7,0 C 2,3 C 3,1 C 3,1 C 0,7 C 88 % 93 % 1005,2 hPa 0,0 l/m 0,8 km/h (0 Bft) S-SO 157 0 min 0,6 C 3,1 C 0,0 km/h (0 Bft)
05.12.2021 09:45 2,5 C 7,0 C 2,4 C 3,2 C 3,2 C 0,7 C 88 % 93 % 1005,2 hPa 0,0 l/m 0,5 km/h (0 Bft) SW 225 0 min 0,7 C 3,2 C 0,0 km/h (0 Bft)
05.12.2021 09:50 2,7 C 7,0 C 2,4 C 3,3 C 3,3 C 0,6 C 88 % 93 % 1005,7 hPa 0,0 l/m 0,5 km/h (0 Bft) SW 225 0 min 0,9 C 3,3 C 0,0 km/h (0 Bft)
05.12.2021 09:55 2,7 C 7,0 C 2,5 C 3,4 C 3,4 C 0,7 C 88 % 92 % 1005,7 hPa 0,0 l/m 0,3 km/h (0 Bft) SW 225 0 min 0,9 C 3,4 C 0,0 km/h (0 Bft)
05.12.2021 10:00 2,7 C 7,0 C 2,5 C 3,5 C 3,5 C 0,8 C 88 % 92 % 1005,7 hPa 0,0 l/m 0,2 km/h (0 Bft) SW 225 0 min 0,9 C 3,5 C 0,0 km/h (0 Bft)
05.12.2021 10:05 2,7 C 7,0 C 2,6 C 3,6 C 3,6 C 0,9 C 88 % 92 % 1005,7 hPa 0,0 l/m 0,0 km/h (0 Bft) SW 225 0 min 0,9 C 3,6 C 0,0 km/h (0 Bft)
05.12.2021 10:10 2,8 C 7,0 C 2,7 C 3,6 C 3,6 C 0,8 C 88 % 92 % 1005,8 hPa 0,0 l/m 0,0 km/h (0 Bft) SW 225 0 min 1,0 C 3,6 C 0,0 km/h (0 Bft)
05.12.2021 10:15 2,8 C 7,0 C 2,7 C 3,8 C 3,8 C 1,0 C 88 % 92 % 1005,8 hPa 0,0 l/m 0,0 km/h (0 Bft) SW 225 0 min 1,0 C 3,8 C 0,0 km/h (0 Bft)
05.12.2021 10:20 2,9 C 7,0 C 2,8 C 3,9 C 3,9 C 1,0 C 88 % 92 % 1005,8 hPa 0,0 l/m 0,0 km/h (0 Bft) SW 225 0 min 1,1 C 3,9 C 0,0 km/h (0 Bft)
05.12.2021 10:25 2,9 C 7,0 C 2,9 C 4,1 C 4,1 C 1,2 C 88 % 92 % 1005,8 hPa 0,0 l/m 0,0 km/h (0 Bft) SW 225 0 min 1,1 C 4,1 C 0,0 km/h (0 Bft)
05.12.2021 10:30 3,1 C 7,0 C 3,0 C 4,2 C 4,2 C 1,1 C 88 % 92 % 1006,0 hPa 0,0 l/m 0,2 km/h (0 Bft) SW 225 0 min 1,3 C 4,2 C 0,0 km/h (0 Bft)
05.12.2021 10:35 3,0 C 7,0 C 3,1 C 4,3 C 4,3 C 1,3 C 88 % 91 % 1006,0 hPa 0,0 l/m 0,2 km/h (0 Bft) SW 225 0 min 1,2 C 4,3 C 0,0 km/h (0 Bft)
05.12.2021 10:40 3,1 C 7,0 C 3,1 C 4,4 C 4,4 C 1,3 C 88 % 91 % 1006,0 hPa 0,0 l/m 0,3 km/h (0 Bft) SW 225 0 min 1,3 C 4,4 C 2,3 km/h (1 Bft)
05.12.2021 10:45 3,1 C 7,0 C 3,1 C 4,4 C 4,4 C 1,3 C 87 % 91 % 1006,0 hPa 0,0 l/m 0,2 km/h (0 Bft) SW 225 0 min 1,2 C 4,4 C 0,0 km/h (0 Bft)
05.12.2021 10:50 3,2 C 7,0 C 3,2 C 4,5 C 4,5 C 1,3 C 87 % 91 % 1006,1 hPa 0,0 l/m 0,0 km/h (0 Bft) SW 225 0 min 1,2 C 4,5 C 0,0 km/h (0 Bft)
05.12.2021 10:55 3,2 C 7,0 C 3,4 C 4,7 C 4,7 C 1,5 C 87 % 92 % 1006,1 hPa 0,0 l/m 0,8 km/h (0 Bft) W-SW 247 0 min 1,2 C 4,7 C 5,8 km/h (2 Bft)
05.12.2021 11:00 3,3 C 7,0 C 3,4 C 4,8 C 4,8 C 1,5 C 87 % 92 % 1006,1 hPa 0,0 l/m 1,4 km/h (1 Bft) S-SW 202 0 min 1,3 C 4,8 C 2,1 km/h (1 Bft)
05.12.2021 11:05 3,3 C 7,0 C 3,5 C 4,8 C 4,8 C 1,5 C 87 % 91 % 1006,1 hPa 0,0 l/m 2,3 km/h (1 Bft) S-SW 202 0 min 1,3 C 4,8 C 3,5 km/h (1 Bft)
05.12.2021 11:10 3,3 C 7,0 C 3,4 C 4,7 C 4,7 C 1,4 C 87 % 91 % 1006,2 hPa 0,0 l/m 2,7 km/h (1 Bft) SW 225 0 min 1,3 C 4,7 C 5,5 km/h (1 Bft)
05.12.2021 11:15 3,5 C 7,0 C 3,4 C 4,2 C 4,2 C 0,7 C 87 % 91 % 1006,2 hPa 0,0 l/m 3,9 km/h (1 Bft) SW 225 0 min 1,5 C 4,2 C 4,2 km/h (1 Bft)
05.12.2021 11:20 3,5 C 7,0 C 3,4 C 4,1 C 4,1 C 0,6 C 87 % 91 % 1006,2 hPa 0,0 l/m 4,0 km/h (1 Bft) W-SW 247 0 min 1,5 C 4,1 C 4,0 km/h (1 Bft)
05.12.2021 11:25 3,5 C 7,0 C 3,6 C 4,7 C 4,7 C 1,2 C 87 % 91 % 1006,2 hPa 0,0 l/m 2,9 km/h (1 Bft) SW 225 0 min 1,5 C 4,7 C 4,8 km/h (1 Bft)
05.12.2021 11:30 3,5 C 7,0 C 3,7 C 4,7 C 4,7 C 1,2 C 87 % 90 % 1006,2 hPa 0,0 l/m 3,1 km/h (1 Bft) W-SW 247 0 min 1,5 C 4,7 C 5,0 km/h (1 Bft)
05.12.2021 11:35 3,5 C 7,0 C 3,7 C 4,6 C 4,6 C 1,1 C 86 % 90 % 1006,2 hPa 0,0 l/m 3,5 km/h (1 Bft) SW 225 0 min 1,4 C 4,6 C 4,7 km/h (1 Bft)
05.12.2021 11:40 3,6 C 7,0 C 3,7 C 4,6 C 4,6 C 1,0 C 86 % 90 % 1006,2 hPa 0,0 l/m 3,7 km/h (1 Bft) S 180 0 min 1,5 C 4,6 C 5,8 km/h (2 Bft)
05.12.2021 11:45 3,7 C 7,0 C 3,9 C 4,3 C 4,3 C 0,6 C 86 % 90 % 1006,2 hPa 0,0 l/m 4,5 km/h (1 Bft) W-SW 247 0 min 1,6 C 4,3 C 4,7 km/h (1 Bft)
05.12.2021 11:50 3,6 C 7,0 C 3,9 C 4,4 C 4,4 C 0,8 C 86 % 90 % 1006,2 hPa 0,0 l/m 4,5 km/h (1 Bft) S-SW 202 0 min 1,5 C 4,4 C 4,7 km/h (1 Bft)
05.12.2021 11:55 3,7 C 7,0 C 4,0 C 5,2 C 5,2 C 1,5 C 86 % 90 % 1006,2 hPa 0,0 l/m 3,1 km/h (1 Bft) S-SW 202 0 min 1,6 C 5,2 C 2,7 km/h (1 Bft)
05.12.2021 12:00 3,8 C 7,0 C 4,1 C 5,4 C 5,4 C 1,6 C 86 % 90 % 1006,2 hPa 0,0 l/m 2,9 km/h (1 Bft) SW 225 0 min 1,7 C 5,4 C 3,7 km/h (1 Bft)
05.12.2021 12:05 3,9 C 7,1 C 4,3 C 5,6 C 5,6 C 1,7 C 86 % 90 % 1006,2 hPa 0,0 l/m 3,5 km/h (1 Bft) S 180 0 min 1,8 C 5,6 C 3,9 km/h (1 Bft)
05.12.2021 12:10 4,0 C 7,1 C 4,6 C 5,9 C 5,9 C 1,9 C 86 % 90 % 1006,1 hPa 0,0 l/m 3,5 km/h (1 Bft) W-SW 247 0 min 1,9 C 5,9 C 2,3 km/h (1 Bft)
05.12.2021 12:15 4,1 C 7,1 C 4,8 C 6,5 C 6,5 C 2,4 C 86 % 89 % 1006,1 hPa 0,0 l/m 3,9 km/h (1 Bft) SW 225 0 min 2,0 C 6,5 C 6,9 km/h (2 Bft)
05.12.2021 12:20 4,2 C 7,1 C 4,7 C 6,7 C 6,7 C 2,5 C 86 % 89 % 1006,1 hPa 0,0 l/m 3,4 km/h (1 Bft) S 180 0 min 2,1 C 6,7 C 2,9 km/h (1 Bft)
05.12.2021 12:25 4,2 C 7,0 C 4,7 C 6,7 C 6,7 C 2,5 C 86 % 89 % 1006,1 hPa 0,0 l/m 2,6 km/h (1 Bft) W-SW 247 0 min 2,1 C 6,7 C 2,9 km/h (1 Bft)
05.12.2021 12:30 4,3 C 7,0 C 4,6 C 6,8 C 6,8 C 2,5 C 86 % 88 % 1006,4 hPa 0,0 l/m 2,9 km/h (1 Bft) SW 225 0 min 2,2 C 6,8 C 3,7 km/h (1 Bft)
05.12.2021 12:35 4,4 C 7,0 C 4,4 C 6,4 C 6,4 C 2,0 C 86 % 88 % 1006,4 hPa 0,0 l/m 3,9 km/h (1 Bft) W-SW 247 0 min 2,3 C 6,4 C 3,9 km/h (1 Bft)
05.12.2021 12:40 4,4 C 7,0 C 4,4 C 6,2 C 6,2 C 1,8 C 85 % 88 % 1006,4 hPa 0,0 l/m 4,0 km/h (1 Bft) W 270 0 min 2,1 C 6,2 C 5,1 km/h (1 Bft)
05.12.2021 12:45 4,4 C 7,0 C 4,2 C 5,9 C 5,9 C 1,5 C 85 % 88 % 1006,4 hPa 0,0 l/m 3,9 km/h (1 Bft) O-NO 67 0 min 2,1 C 5,9 C 2,4 km/h (1 Bft)
05.12.2021 12:50 4,4 C 7,0 C 4,1 C 5,4 C 5,4 C 1,0 C 85 % 88 % 1006,7 hPa 0,0 l/m 3,9 km/h (1 Bft) W-SW 247 0 min 2,1 C 5,4 C 3,5 km/h (1 Bft)
05.12.2021 12:55 4,3 C 7,0 C 4,0 C 5,4 C 5,4 C 1,1 C 85 % 88 % 1006,7 hPa 0,0 l/m 3,9 km/h (1 Bft) W 270 0 min 2,0 C 5,4 C 5,5 km/h (1 Bft)
05.12.2021 13:00 4,4 C 7,0 C 4,0 C 5,9 C 5,9 C 1,5 C 85 % 88 % 1006,7 hPa 0,0 l/m 3,2 km/h (1 Bft) S 180 0 min 2,1 C 5,9 C 3,1 km/h (1 Bft)
05.12.2021 13:05 4,4 C 7,1 C 4,1 C 6,1 C 6,1 C 1,7 C 85 % 88 % 1006,7 hPa 0,0 l/m 3,4 km/h (1 Bft) SW 225 0 min 2,1 C 6,1 C 6,3 km/h (2 Bft)
05.12.2021 13:10 4,5 C 7,1 C 4,1 C 5,9 C 5,9 C 1,4 C 84 % 88 % 1006,6 hPa 0,0 l/m 3,9 km/h (1 Bft) W-SW 247 0 min 2,0 C 5,9 C 4,7 km/h (1 Bft)
05.12.2021 13:15 4,6 C 7,0 C 3,9 C 5,3 C 5,3 C 0,7 C 84 % 88 % 1006,6 hPa 0,0 l/m 4,8 km/h (1 Bft) W-SW 247 0 min 2,1 C 4,5 C 7,6 km/h (2 Bft)
05.12.2021 13:20 4,7 C 7,0 C 3,9 C 5,2 C 5,2 C 0,5 C 84 % 88 % 1006,6 hPa 0,0 l/m 4,7 km/h (1 Bft) SW 225 0 min 2,2 C 4,4 C 4,7 km/h (1 Bft)
05.12.2021 13:25 4,7 C 7,1 C 3,9 C 6,0 C 6,0 C 1,3 C 84 % 88 % 1006,6 hPa 0,0 l/m 3,9 km/h (1 Bft) SW 225 0 min 2,2 C 6,0 C 4,7 km/h (1 Bft)
05.12.2021 13:30 4,8 C 7,0 C 3,9 C 5,9 C 5,9 C 1,1 C 83 % 88 % 1006,8 hPa 0,0 l/m 4,0 km/h (1 Bft) SW 225 0 min 2,2 C 5,9 C 5,0 km/h (1 Bft)
05.12.2021 13:35 4,8 C 7,1 C 3,9 C 5,4 C 5,4 C 0,6 C 83 % 88 % 1006,8 hPa 0,0 l/m 5,0 km/h (1 Bft) S-SW 202 0 min 2,2 C 4,5 C 4,0 km/h (1 Bft)
05.12.2021 13:40 4,8 C 7,1 C 4,0 C 5,7 C 5,7 C 0,9 C 83 % 88 % 1006,8 hPa 0,0 l/m 4,8 km/h (1 Bft) NO 45 0 min 2,2 C 5,0 C 7,9 km/h (2 Bft)
05.12.2021 13:45 4,8 C 7,0 C 4,0 C 6,2 C 6,2 C 1,4 C 82 % 88 % 1006,8 hPa 0,0 l/m 4,7 km/h (1 Bft) SW 225 0 min 2,0 C 5,6 C 5,0 km/h (1 Bft)
05.12.2021 13:50 4,9 C 7,1 C 4,0 C 5,9 C 5,9 C 1,0 C 82 % 88 % 1006,6 hPa 0,0 l/m 4,8 km/h (1 Bft) SW 225 0 min 2,1 C 5,2 C 8,7 km/h (2 Bft)
05.12.2021 13:55 4,8 C 7,0 C 4,0 C 5,7 C 5,7 C 0,9 C 82 % 88 % 1006,6 hPa 0,0 l/m 5,0 km/h (1 Bft) W-SW 247 0 min 2,0 C 4,9 C 6,9 km/h (2 Bft)
05.12.2021 14:00 4,8 C 7,0 C 3,9 C 5,2 C 5,2 C 0,4 C 82 % 88 % 1006,6 hPa 0,0 l/m 5,5 km/h (1 Bft) S-SW 202 0 min 2,0 C 4,1 C 6,4 km/h (2 Bft)
05.12.2021 14:05 4,7 C 7,0 C 3,8 C 5,1 C 5,1 C 0,4 C 82 % 88 % 1006,6 hPa 0,0 l/m 4,2 km/h (1 Bft) SW 225 0 min 1,9 C 5,1 C 3,1 km/h (1 Bft)
05.12.2021 14:10 4,7 C 7,1 C 3,6 C 5,2 C 5,2 C 0,5 C 82 % 88 % 1007,0 hPa 0,0 l/m 3,1 km/h (1 Bft) W-SW 247 0 min 1,9 C 5,2 C 2,3 km/h (1 Bft)
05.12.2021 14:15 4,4 C 7,1 C 3,4 C 4,7 C 4,7 C 0,3 C 82 % 88 % 1007,0 hPa 0,0 l/m 1,9 km/h (1 Bft) N-NO 22 0 min 1,6 C 4,7 C 0,0 km/h (0 Bft)
05.12.2021 14:20 4,4 C 7,1 C 3,4 C 4,5 C 4,5 C 0,1 C 82 % 88 % 1007,0 hPa 0,0 l/m 1,1 km/h (1 Bft) N-NO 22 0 min 1,6 C 4,5 C 0,0 km/h (0 Bft)
05.12.2021 14:25 4,3 C 7,1 C 3,4 C 4,3 C 4,2 C 0,0 C 82 % 88 % 1007,0 hPa 0,0 l/m 0,5 km/h (0 Bft) S 180 0 min 1,5 C 4,2 C 1,8 km/h (1 Bft)
05.12.2021 14:30 4,1 C 7,1 C 3,4 C 4,2 C 4,2 C 0,1 C 83 % 88 % 1007,3 hPa 0,0 l/m 0,6 km/h (0 Bft) S-SO 157 0 min 1,5 C 4,2 C 0,0 km/h (0 Bft)
05.12.2021 14:35 4,1 C 7,1 C 3,3 C 4,1 C 4,1 C 0,0 C 83 % 88 % 1007,3 hPa 0,0 l/m 0,5 km/h (0 Bft) S 180 0 min 1,5 C 4,1 C 0,0 km/h (0 Bft)
05.12.2021 14:40 4,0 C 7,1 C 3,3 C 4,1 C 4,1 C 0,1 C 83 % 88 % 1007,3 hPa 0,0 l/m 0,2 km/h (0 Bft) W-SW 247 0 min 1,4 C 4,1 C 0,0 km/h (0 Bft)
05.12.2021 14:45 4,0 C 7,1 C 3,2 C 4,1 C 4,1 C 0,1 C 83 % 88 % 1007,3 hPa 0,0 l/m 1,1 km/h (1 Bft) SW 225 0 min 1,4 C 4,1 C 0,0 km/h (0 Bft)
05.12.2021 14:50 4,0 C 7,1 C 3,1 C 4,1 C 4,1 C 0,1 C 83 % 89 % 1006,9 hPa 0,0 l/m 1,3 km/h (1 Bft) W-SW 247 0 min 1,4 C 4,1 C 1,6 km/h (1 Bft)
05.12.2021 14:55 4,0 C 7,1 C 3,1 C 4,1 C 4,1 C 0,1 C 83 % 89 % 1006,9 hPa 0,0 l/m 0,5 km/h (0 Bft) S-SW 202 0 min 1,4 C 4,1 C 0,0 km/h (0 Bft)
05.12.2021 15:00 3,9 C 7,2 C 3,1 C 4,1 C 4,1 C 0,2 C 84 % 89 % 1006,9 hPa 0,0 l/m 0,2 km/h (0 Bft) W-SW 247 0 min 1,4 C 4,1 C 0,0 km/h (0 Bft)
05.12.2021 15:05 3,9 C 7,2 C 3,1 C 4,0 C 4,0 C 0,1 C 84 % 89 % 1006,9 hPa 0,0 l/m 0,0 km/h (0 Bft) S 180 0 min 1,4 C 4,0 C 0,0 km/h (0 Bft)
05.12.2021 15:10 3,9 C 7,2 C 3,1 C 3,9 C 3,9 C 0,0 C 84 % 89 % 1007,4 hPa 0,0 l/m 0,0 km/h (0 Bft) S 180 0 min 1,4 C 3,9 C 0,0 km/h (0 Bft)
05.12.2021 15:15 3,9 C 7,2 C 3,1 C 3,9 C 3,8 C 0,0 C 84 % 89 % 1007,4 hPa 0,0 l/m 0,0 km/h (0 Bft) S 180 0 min 1,4 C 3,8 C 0,0 km/h (0 Bft)
05.12.2021 15:20 3,7 C 7,2 C 3,1 C 3,7 C 3,7 C 0,0 C 84 % 89 % 1007,4 hPa 0,0 l/m 0,0 km/h (0 Bft) S 180 0 min 1,3 C 3,7 C 0,0 km/h (0 Bft)
05.12.2021 15:25 3,7 C 7,2 C 2,8 C 3,7 C 3,6 C 0,0 C 84 % 89 % 1007,4 hPa 0,0 l/m 0,0 km/h (0 Bft) O-NO 67 0 min 1,3 C 3,6 C 0,0 km/h (0 Bft)
05.12.2021 15:30 3,7 C 7,2 C 2,8 C 3,6 C 3,5 C 0,0 C 84 % 89 % 1007,9 hPa 0,0 l/m 0,2 km/h (0 Bft) O-NO 67 0 min 1,3 C 3,5 C 0,0 km/h (0 Bft)
05.12.2021 15:35 3,5 C 7,2 C 2,7 C 3,5 C 3,4 C 0,0 C 84 % 90 % 1007,9 hPa 0,0 l/m 0,2 km/h (0 Bft) O-NO 67 0 min 1,1 C 3,4 C 0,0 km/h (0 Bft)
05.12.2021 15:40 3,4 C 7,2 C 2,7 C 3,4 C 3,3 C 0,0 C 84 % 90 % 1007,9 hPa 0,0 l/m 0,2 km/h (0 Bft) O-NO 67 0 min 1,0 C 3,3 C 0,0 km/h (0 Bft)
05.12.2021 15:45 3,5 C 7,2 C 2,6 C 3,4 C 3,2 C 0,0 C 85 % 90 % 1007,9 hPa 0,0 l/m 0,0 km/h (0 Bft) O-NO 67 0 min 1,2 C 3,2 C 0,0 km/h (0 Bft)
05.12.2021 15:50 3,3 C 7,2 C 2,5 C 3,2 C 3,1 C 0,0 C 85 % 90 % 1007,8 hPa 0,0 l/m 0,0 km/h (0 Bft) O-NO 67 0 min 1,0 C 3,1 C 0,0 km/h (0 Bft)
05.12.2021 15:55 3,2 C 7,2 C 2,3 C 3,1 C 3,0 C 0,0 C 85 % 90 % 1007,8 hPa 0,0 l/m 0,0 km/h (0 Bft) O-NO 67 0 min 0,9 C 3,0 C 0,0 km/h (0 Bft)
05.12.2021 16:00 3,2 C 7,2 C 2,3 C 3,1 C 2,9 C 0,0 C 85 % 90 % 1007,8 hPa 0,0 l/m 0,0 km/h (0 Bft) O-NO 67 0 min 0,9 C 2,9 C 0,0 km/h (0 Bft)
05.12.2021 16:05 3,0 C 7,2 C 2,1 C 3,0 C 2,9 C 0,0 C 85 % 90 % 1007,8 hPa 0,0 l/m 0,0 km/h (0 Bft) O-NO 67 0 min 0,7 C 2,9 C 0,0 km/h (0 Bft)
05.12.2021 16:10 3,1 C 7,2 C 2,2 C 3,0 C 2,9 C 0,0 C 85 % 91 % 1008,3 hPa 0,0 l/m 0,0 km/h (0 Bft) O-NO 67 0 min 0,8 C 2,9 C 0,0 km/h (0 Bft)
05.12.2021 16:15 2,9 C 7,2 C 2,2 C 2,9 C 2,9 C 0,0 C 85 % 91 % 1008,3 hPa 0,0 l/m 0,0 km/h (0 Bft) O-NO 67 0 min 0,6 C 2,9 C 0,0 km/h (0 Bft)
05.12.2021 16:20 2,9 C 7,2 C 2,2 C 2,9 C 2,9 C 0,0 C 85 % 91 % 1008,3 hPa 0,0 l/m 0,0 km/h (0 Bft) O-NO 67 0 min 0,6 C 2,9 C 0,0 km/h (0 Bft)
05.12.2021 16:25 2,8 C 7,2 C 2,2 C 2,8 C 2,8 C 0,0 C 85 % 91 % 1008,3 hPa 0,0 l/m 0,0 km/h (0 Bft) O-NO 67 0 min 0,5 C 2,8 C 0,0 km/h (0 Bft)
05.12.2021 16:30 2,8 C 7,3 C 2,1 C 2,8 C 2,7 C 0,0 C 86 % 91 % 1007,9 hPa 0,0 l/m 0,0 km/h (0 Bft) O-NO 67 0 min 0,7 C 2,7 C 0,0 km/h (0 Bft)
05.12.2021 16:35 2,7 C 7,3 C 2,1 C 2,6 C 2,5 C 0,0 C 85 % 91 % 1007,9 hPa 0,0 l/m 0,0 km/h (0 Bft) O-NO 67 0 min 0,4 C 2,5 C 0,0 km/h (0 Bft)
05.12.2021 16:40 2,7 C 7,3 C 2,0 C 2,6 C 2,5 C 0,0 C 85 % 91 % 1007,9 hPa 0,0 l/m 0,0 km/h (0 Bft) O-NO 67 0 min 0,4 C 2,5 C 0,0 km/h (0 Bft)
05.12.2021 16:45 2,7 C 7,3 C 2,0 C 2,6 C 2,4 C 0,0 C 85 % 91 % 1007,9 hPa 0,0 l/m 0,0 km/h (0 Bft) O-NO 67 0 min 0,4 C 2,4 C 0,0 km/h (0 Bft)
05.12.2021 16:50 2,7 C 7,3 C 2,0 C 2,6 C 2,4 C 0,0 C 86 % 91 % 1008,2 hPa 0,0 l/m 0,0 km/h (0 Bft) O-NO 67 0 min 0,6 C 2,4 C 0,0 km/h (0 Bft)
05.12.2021 16:55 2,6 C 7,3 C 1,9 C 2,5 C 2,4 C 0,0 C 86 % 91 % 1008,2 hPa 0,0 l/m 0,0 km/h (0 Bft) O-NO 67 0 min 0,5 C 2,4 C 0,0 km/h (0 Bft)
05.12.2021 17:00 2,5 C 7,3 C 1,9 C 2,4 C 2,3 C 0,0 C 86 % 91 % 1008,2 hPa 0,0 l/m 0,0 km/h (0 Bft) O-NO 67 0 min 0,4 C 2,3 C 0,0 km/h (0 Bft)
05.12.2021 17:05 2,5 C 7,3 C 1,9 C 2,4 C 2,3 C 0,0 C 86 % 91 % 1008,2 hPa 0,0 l/m 0,0 km/h (0 Bft) O-NO 67 0 min 0,4 C 2,3 C 0,0 km/h (0 Bft)
05.12.2021 17:10 2,5 C 7,3 C 1,9 C 2,4 C 2,3 C 0,0 C 87 % 92 % 1008,6 hPa 0,0 l/m 0,0 km/h (0 Bft) O-NO 67 0 min 0,6 C 2,3 C 0,0 km/h (0 Bft)
05.12.2021 17:15 2,5 C 7,3 C 1,9 C 2,4 C 2,3 C 0,0 C 87 % 92 % 1008,6 hPa 0,0 l/m 0,0 km/h (0 Bft) O-NO 67 0 min 0,6 C 2,3 C 0,0 km/h (0 Bft)
05.12.2021 17:20 2,4 C 7,3 C 1,9 C 2,3 C 2,2 C 0,0 C 86 % 92 % 1008,6 hPa 0,0 l/m 0,0 km/h (0 Bft) O-NO 67 0 min 0,3 C 2,2 C 0,0 km/h (0 Bft)
05.12.2021 17:25 2,4 C 7,3 C 1,9 C 2,3 C 2,1 C 0,0 C 86 % 92 % 1008,6 hPa 0,0 l/m 0,0 km/h (0 Bft) O-NO 67 0 min 0,3 C 2,1 C 0,0 km/h (0 Bft)
05.12.2021 17:30 2,5 C 7,3 C 1,9 C 2,4 C 2,1 C 0,0 C 87 % 92 % 1008,5 hPa 0,0 l/m 0,0 km/h (0 Bft) O-NO 67 0 min 0,6 C 2,1 C 0,0 km/h (0 Bft)
05.12.2021 17:35 2,4 C 7,3 C 1,8 C 2,3 C 2,0 C 0,0 C 86 % 92 % 1008,5 hPa 0,0 l/m 0,0 km/h (0 Bft) O-NO 67 0 min 0,3 C 2,0 C 0,0 km/h (0 Bft)
05.12.2021 17:40 2,3 C 7,3 C 1,8 C 2,2 C 2,0 C 0,0 C 86 % 92 % 1008,5 hPa 0,0 l/m 0,0 km/h (0 Bft) O-NO 67 0 min 0,2 C 2,0 C 0,0 km/h (0 Bft)
05.12.2021 17:45 2,2 C 7,3 C 1,7 C 2,1 C 1,9 C 0,0 C 87 % 92 % 1008,5 hPa 0,0 l/m 0,0 km/h (0 Bft) O-NO 67 0 min 0,3 C 1,9 C 0,0 km/h (0 Bft)
05.12.2021 17:50 2,3 C 7,3 C 1,7 C 2,2 C 1,9 C 0,0 C 87 % 92 % 1008,8 hPa 0,0 l/m 0,0 km/h (0 Bft) O-NO 67 0 min 0,4 C 1,9 C 0,0 km/h (0 Bft)
05.12.2021 17:55 2,3 C 7,3 C 1,7 C 2,2 C 1,9 C 0,0 C 87 % 92 % 1008,8 hPa 0,0 l/m 0,0 km/h (0 Bft) O-NO 67 0 min 0,4 C 1,9 C 0,0 km/h (0 Bft)
05.12.2021 18:00 2,3 C 7,3 C 1,7 C 2,2 C 1,9 C 0,0 C 87 % 92 % 1008,8 hPa 0,0 l/m 0,0 km/h (0 Bft) O-NO 67 0 min 0,4 C 1,9 C 0,0 km/h (0 Bft)
05.12.2021 18:05 2,2 C 7,3 C 1,7 C 2,1 C 1,9 C 0,0 C 87 % 92 % 1008,8 hPa 0,0 l/m 0,0 km/h (0 Bft) O-NO 67 0 min 0,3 C 1,9 C 0,0 km/h (0 Bft)
05.12.2021 18:10 2,3 C 7,4 C 1,6 C 2,2 C 1,9 C 0,0 C 87 % 92 % 1008,7 hPa 0,0 l/m 0,0 km/h (0 Bft) O-NO 67 0 min 0,4 C 1,9 C 0,0 km/h (0 Bft)
05.12.2021 18:15 2,3 C 7,5 C 1,6 C 2,2 C 2,0 C 0,0 C 87 % 92 % 1008,7 hPa 0,0 l/m 0,0 km/h (0 Bft) O-NO 67 0 min 0,4 C 2,0 C 0,0 km/h (0 Bft)
05.12.2021 18:20 2,2 C 7,5 C 1,7 C 2,1 C 2,0 C 0,0 C 87 % 92 % 1008,7 hPa 0,0 l/m 0,0 km/h (0 Bft) O-NO 67 0 min 0,3 C 2,0 C 0,0 km/h (0 Bft)
05.12.2021 18:25 2,3 C 7,4 C 1,7 C 2,2 C 2,1 C 0,0 C 88 % 92 % 1008,7 hPa 0,0 l/m 0,0 km/h (0 Bft) O-NO 67 0 min 0,5 C 2,1 C 0,0 km/h (0 Bft)
05.12.2021 18:30 2,2 C 7,5 C 1,7 C 2,2 C 2,1 C 0,0 C 87 % 92 % 1008,9 hPa 0,0 l/m 0,0 km/h (0 Bft) O-NO 67 0 min 0,3 C 2,1 C 0,0 km/h (0 Bft)
05.12.2021 18:35 2,3 C 7,5 C 1,7 C 2,3 C 2,2 C 0,0 C 88 % 92 % 1008,9 hPa 0,0 l/m 0,0 km/h (0 Bft) O-NO 67 0 min 0,5 C 2,2 C 0,0 km/h (0 Bft)
05.12.2021 18:40 2,2 C 7,5 C 1,7 C 2,2 C 2,2 C 0,0 C 88 % 92 % 1008,9 hPa 0,0 l/m 0,0 km/h (0 Bft) O-NO 67 0 min 0,4 C 2,2 C 0,0 km/h (0 Bft)
05.12.2021 18:45 2,2 C 7,4 C 1,7 C 2,2 C 2,2 C 0,0 C 88 % 92 % 1008,9 hPa 0,0 l/m 0,0 km/h (0 Bft) O-NO 67 0 min 0,4 C 2,2 C 0,0 km/h (0 Bft)
05.12.2021 18:50 2,2 C 7,5 C 1,7 C 2,2 C 2,2 C 0,0 C 88 % 92 % 1009,0 hPa 0,0 l/m 0,0 km/h (0 Bft) O-NO 67 0 min 0,4 C 2,2 C 0,0 km/h (0 Bft)
05.12.2021 18:55 2,2 C 7,4 C 1,7 C 2,2 C 2,2 C 0,0 C 88 % 92 % 1009,0 hPa 0,0 l/m 0,0 km/h (0 Bft) O-NO 67 0 min 0,4 C 2,2 C 0,0 km/h (0 Bft)
05.12.2021 19:00 2,3 C 7,5 C 1,7 C 2,2 C 2,1 C 0,0 C 88 % 92 % 1009,0 hPa 0,0 l/m 0,0 km/h (0 Bft) O-NO 67 0 min 0,5 C 2,1 C 0,0 km/h (0 Bft)
05.12.2021 19:05 2,3 C 7,4 C 1,6 C 2,2 C 2,0 C 0,0 C 88 % 92 % 1009,0 hPa 0,0 l/m 0,0 km/h (0 Bft) O-NO 67 0 min 0,5 C 2,0 C 0,0 km/h (0 Bft)
05.12.2021 19:10 2,3 C 7,4 C 1,6 C 2,2 C 2,0 C 0,0 C 88 % 92 % 1009,3 hPa 0,0 l/m 0,0 km/h (0 Bft) O-NO 67 0 min 0,5 C 2,0 C 0,0 km/h (0 Bft)
05.12.2021 19:15 2,2 C 7,4 C 1,5 C 2,2 C 2,1 C 0,0 C 88 % 92 % 1009,3 hPa 0,0 l/m 0,0 km/h (0 Bft) O-NO 67 0 min 0,4 C 2,1 C 0,0 km/h (0 Bft)
05.12.2021 19:20 2,2 C 7,4 C 1,6 C 2,2 C 2,1 C 0,0 C 88 % 92 % 1009,3 hPa 0,0 l/m 0,0 km/h (0 Bft) O-NO 67 0 min 0,4 C 2,1 C 0,0 km/h (0 Bft)
05.12.2021 19:25 2,1 C 7,4 C 1,5 C 2,2 C 2,2 C 0,1 C 88 % 92 % 1009,3 hPa 0,0 l/m 0,0 km/h (0 Bft) S 180 0 min 0,3 C 2,2 C 0,0 km/h (0 Bft)
05.12.2021 19:30 2,1 C 7,2 C 1,5 C 2,2 C 2,2 C 0,1 C 88 % 92 % 1009,8 hPa 0,0 l/m 0,0 km/h (0 Bft) SO 135 0 min 0,3 C 2,2 C 0,0 km/h (0 Bft)
05.12.2021 19:35 2,1 C 7,2 C 1,6 C 2,3 C 2,3 C 0,2 C 88 % 92 % 1009,8 hPa 0,0 l/m 0,0 km/h (0 Bft) SO 135 0 min 0,3 C 2,3 C 0,0 km/h (0 Bft)
05.12.2021 19:40 2,1 C 7,2 C 1,6 C 2,4 C 2,4 C 0,3 C 88 % 92 % 1009,8 hPa 0,0 l/m 0,0 km/h (0 Bft) S 180 0 min 0,3 C 2,4 C 0,0 km/h (0 Bft)
05.12.2021 19:43 2,1 C 7,3 C 1,6 C 2,3 C 2,3 C 0,2 C 88 % 92 % 1009,8 hPa 0,0 l/m 0,0 km/h (0 Bft) S 180 0 min 0,3 C 2,3 C 0,0 km/h (0 Bft)
05.12.2021 19:48 2,1 C 7,4 C 1,6 C 2,2 C 2,2 C 0,1 C 88 % 92 % 1009,7 hPa 0,0 l/m 0,0 km/h (0 Bft) S 180 0 min 0,3 C 2,2 C 0,0 km/h (0 Bft)
05.12.2021 19:53 2,1 C 7,2 C 1,7 C 2,2 C 2,2 C 0,1 C 88 % 92 % 1009,7 hPa 0,0 l/m 0,0 km/h (0 Bft) S 180 0 min 0,3 C 2,2 C 0,0 km/h (0 Bft)
05.12.2021 19:58 2,1 C 7,2 C 1,7 C 2,2 C 2,2 C 0,1 C 88 % 92 % 1009,7 hPa 0,0 l/m 0,0 km/h (0 Bft) S 180 0 min 0,3 C 2,2 C 0,0 km/h (0 Bft)
05.12.2021 20:00 2,1 C 7,2 C 1,7 C 2,2 C 2,2 C 0,1 C 88 % 92 % 1009,7 hPa 0,0 l/m 0,0 km/h (0 Bft) S 180 0 min 0,3 C 2,2 C 0,0 km/h (0 Bft)
05.12.2021 20:05 2,0 C 7,2 C 1,6 C 2,2 C 2,2 C 0,2 C 88 % 92 % 1009,7 hPa 0,0 l/m 0,0 km/h (0 Bft) S 180 0 min 0,2 C 2,2 C 0,0 km/h (0 Bft)
05.12.2021 20:11 2,0 C 7,2 C 1,6 C 2,1 C 2,1 C 0,1 C 88 % 92 % 1009,8 hPa 0,0 l/m 0,0 km/h (0 Bft) N 0 0 min 0,2 C 2,1 C 0,0 km/h (0 Bft)
05.12.2021 20:31 2,0 C 7,2 C 1,5 C 2,1 C 2,1 C 0,1 C 88 % 92 % 1010,4 hPa 0,0 l/m 0,0 km/h (0 Bft) S 180 0 min 0,2 C 2,1 C 0,0 km/h (0 Bft)
05.12.2021 20:43 2,0 C 7,2 C 1,5 C 2,2 C 2,2 C 0,2 C 88 % 92 % 1010,4 hPa 0,0 l/m 0,0 km/h (0 Bft) S 180 0 min 0,2 C 2,2 C 0,0 km/h (0 Bft)
05.12.2021 20:45 2,0 C 7,2 C 1,5 C 2,1 C 2,1 C 0,1 C 88 % 92 % 1010,4 hPa 0,0 l/m 0,0 km/h (0 Bft) S 180 0 min 0,2 C 2,1 C 0,0 km/h (0 Bft)
05.12.2021 20:50 2,0 C 7,2 C 1,5 C 2,1 C 2,1 C 0,1 C 88 % 92 % 1010,4 hPa 0,0 l/m 0,0 km/h (0 Bft) S 180 0 min 0,2 C 2,1 C 0,0 km/h (0 Bft)
05.12.2021 20:55 2,0 C 7,2 C 1,5 C 2,1 C 2,1 C 0,1 C 88 % 92 % 1010,4 hPa 0,0 l/m 0,0 km/h (0 Bft) S 180 0 min 0,2 C 2,1 C 0,0 km/h (0 Bft)
05.12.2021 21:00 2,0 C 7,2 C 1,5 C 2,0 C 2,0 C 0,0 C 88 % 92 % 1010,4 hPa 0,0 l/m 0,0 km/h (0 Bft) S 180 0 min 0,2 C 2,0 C 0,0 km/h (0 Bft)
05.12.2021 21:05 2,0 C 7,2 C 1,5 C 2,0 C 2,0 C 0,0 C 88 % 92 % 1010,4 hPa 0,0 l/m 0,0 km/h (0 Bft) S 180 0 min 0,2 C 2,0 C 0,0 km/h (0 Bft)
05.12.2021 21:10 2,0 C 7,2 C 1,5 C 2,0 C 1,9 C 0,0 C 88 % 92 % 1010,4 hPa 0,0 l/m 0,0 km/h (0 Bft) S 180 0 min 0,2 C 1,9 C 0,0 km/h (0 Bft)
05.12.2021 21:15 2,0 C 7,2 C 1,5 C 2,0 C 1,9 C 0,0 C 88 % 92 % 1010,4 hPa 0,0 l/m 0,0 km/h (0 Bft) S 180 0 min 0,2 C 1,9 C 0,0 km/h (0 Bft)
05.12.2021 21:20 2,0 C 7,2 C 1,5 C 2,0 C 1,9 C 0,0 C 88 % 92 % 1010,4 hPa 0,0 l/m 0,0 km/h (0 Bft) S 180 0 min 0,2 C 1,9 C 0,0 km/h (0 Bft)
05.12.2021 21:25 1,9 C 7,2 C 1,5 C 1,9 C 1,9 C 0,0 C 88 % 92 % 1010,4 hPa 0,0 l/m 0,0 km/h (0 Bft) S 180 0 min 0,1 C 1,9 C 0,0 km/h (0 Bft)
05.12.2021 21:30 1,9 C 7,2 C 1,4 C 1,9 C 1,9 C 0,0 C 88 % 92 % 1010,4 hPa 0,0 l/m 0,0 km/h (0 Bft) S 180 0 min 0,1 C 1,9 C 0,0 km/h (0 Bft)
05.12.2021 21:35 1,9 C 7,2 C 1,4 C 1,9 C 1,8 C 0,0 C 88 % 92 % 1010,4 hPa 0,0 l/m 0,0 km/h (0 Bft) S 180 0 min 0,1 C 1,8 C 0,0 km/h (0 Bft)
05.12.2021 21:40 1,8 C 7,2 C 1,4 C 1,8 C 1,8 C 0,0 C 88 % 92 % 1010,4 hPa 0,0 l/m 0,0 km/h (0 Bft) S 180 0 min 0,0 C 1,8 C 0,0 km/h (0 Bft)
05.12.2021 21:45 1,8 C 7,2 C 1,3 C 1,8 C 1,7 C 0,0 C 88 % 92 % 1010,4 hPa 0,0 l/m 0,0 km/h (0 Bft) S 180 0 min 0,0 C 1,7 C 0,0 km/h (0 Bft)
05.12.2021 21:50 1,9 C 7,2 C 1,3 C 1,8 C 1,6 C 0,0 C 88 % 92 % 1010,9 hPa 0,0 l/m 0,0 km/h (0 Bft) S 180 0 min 0,1 C 1,6 C 0,0 km/h (0 Bft)
05.12.2021 21:55 1,8 C 7,2 C 1,3 C 1,7 C 1,5 C 0,0 C 88 % 92 % 1010,9 hPa 0,0 l/m 0,0 km/h (0 Bft) S 180 0 min 0,0 C 1,5 C 0,0 km/h (0 Bft)
05.12.2021 22:00 1,7 C 7,2 C 1,3 C 1,6 C 1,5 C 0,0 C 88 % 92 % 1010,9 hPa 0,0 l/m 0,0 km/h (0 Bft) S 180 0 min -0,1 C 1,5 C 0,0 km/h (0 Bft)
05.12.2021 22:05 1,7 C 7,2 C 1,3 C 1,6 C 1,5 C 0,0 C 88 % 92 % 1010,9 hPa 0,0 l/m 0,0 km/h (0 Bft) S 180 0 min -0,1 C 1,5 C 0,0 km/h (0 Bft)
05.12.2021 22:11 1,7 C 7,2 C 1,2 C 1,6 C 1,5 C 0,0 C 88 % 92 % 1011,2 hPa 0,0 l/m 0,0 km/h (0 Bft) N 0 0 min -0,1 C 1,5 C 0,0 km/h (0 Bft)
05.12.2021 22:13 1,6 C 7,2 C 1,3 C 1,5 C 1,4 C 0,0 C 88 % 92 % 1011,2 hPa 0,0 l/m 0,0 km/h (0 Bft) S 180 0 min -0,2 C 1,4 C 0,0 km/h (0 Bft)
05.12.2021 22:18 1,6 C 7,2 C 1,3 C 1,6 C 1,5 C 0,0 C 88 % 92 % 1011,2 hPa 0,0 l/m 0,0 km/h (0 Bft) S 180 0 min -0,2 C 1,5 C 0,0 km/h (0 Bft)
05.12.2021 22:23 1,6 C 7,2 C 1,3 C 1,6 C 1,5 C 0,0 C 88 % 92 % 1011,2 hPa 0,0 l/m 0,0 km/h (0 Bft) W-SW 247 0 min -0,2 C 1,5 C 0,0 km/h (0 Bft)
05.12.2021 22:28 1,7 C 7,2 C 1,3 C 1,6 C 1,5 C 0,0 C 88 % 92 % 1011,1 hPa 0,0 l/m 0,0 km/h (0 Bft) W-SW 247 0 min -0,1 C 1,5 C 0,0 km/h (0 Bft)
05.12.2021 22:31 1,7 C 7,2 C 1,3 C 1,6 C 1,5 C 0,0 C 88 % 92 % 1011,1 hPa 0,0 l/m 0,0 km/h (0 Bft) W-SW 247 0 min -0,1 C 1,5 C 0,0 km/h (0 Bft)
05.12.2021 22:35 1,7 C 7,2 C 1,3 C 1,6 C 1,5 C 0,0 C 88 % 92 % 1011,1 hPa 0,0 l/m 0,0 km/h (0 Bft) W-SW 247 0 min -0,1 C 1,5 C 0,0 km/h (0 Bft)
05.12.2021 22:40 1,7 C 7,2 C 1,3 C 1,6 C 1,5 C 0,0 C 88 % 92 % 1011,1 hPa 0,0 l/m 0,0 km/h (0 Bft) W-SW 247 0 min -0,1 C 1,5 C 0,0 km/h (0 Bft)
05.12.2021 22:45 1,7 C 7,4 C 1,3 C 1,6 C 1,4 C 0,0 C 88 % 92 % 1011,1 hPa 0,0 l/m 0,0 km/h (0 Bft) W-SW 247 0 min -0,1 C 1,4 C 0,0 km/h (0 Bft)
05.12.2021 22:50 1,6 C 7,4 C 1,3 C 1,5 C 1,4 C 0,0 C 88 % 93 % 1010,6 hPa 0,0 l/m 0,0 km/h (0 Bft) W-SW 247 0 min -0,2 C 1,4 C 0,0 km/h (0 Bft)
05.12.2021 22:55 1,6 C 7,4 C 1,3 C 1,5 C 1,4 C 0,0 C 88 % 93 % 1010,6 hPa 0,0 l/m 0,0 km/h (0 Bft) W-SW 247 0 min -0,2 C 1,4 C 0,0 km/h (0 Bft)
05.12.2021 23:00 1,6 C 7,4 C 1,2 C 1,5 C 1,4 C 0,0 C 88 % 93 % 1010,6 hPa 0,0 l/m 0,0 km/h (0 Bft) SW 225 0 min -0,2 C 1,4 C 0,0 km/h (0 Bft)
05.12.2021 23:05 1,6 C 7,4 C 1,2 C 1,5 C 1,4 C 0,0 C 88 % 93 % 1010,6 hPa 0,0 l/m 0,0 km/h (0 Bft) SW 225 0 min -0,2 C 1,4 C 0,0 km/h (0 Bft)
05.12.2021 23:10 1,6 C 7,4 C 1,2 C 1,5 C 1,3 C 0,0 C 88 % 93 % 1011,1 hPa 0,0 l/m 0,0 km/h (0 Bft) SW 225 0 min -0,2 C 1,3 C 0,0 km/h (0 Bft)
05.12.2021 23:15 1,7 C 7,4 C 1,2 C 1,6 C 1,3 C 0,0 C 88 % 93 % 1011,1 hPa 0,0 l/m 0,0 km/h (0 Bft) SW 225 0 min -0,1 C 1,3 C 0,0 km/h (0 Bft)
05.12.2021 23:20 1,7 C 7,4 C 1,1 C 1,5 C 1,2 C 0,0 C 88 % 93 % 1011,1 hPa 0,0 l/m 0,0 km/h (0 Bft) SW 225 0 min -0,1 C 1,2 C 0,0 km/h (0 Bft)
05.12.2021 23:25 1,6 C 7,4 C 1,1 C 1,5 C 1,2 C 0,0 C 88 % 93 % 1011,1 hPa 0,0 l/m 0,0 km/h (0 Bft) SW 225 0 min -0,2 C 1,2 C 0,0 km/h (0 Bft)
05.12.2021 23:30 1,6 C 7,4 C 1,1 C 1,4 C 1,1 C 0,0 C 88 % 93 % 1010,8 hPa 0,0 l/m 0,0 km/h (0 Bft) SW 225 0 min -0,2 C 1,1 C 0,0 km/h (0 Bft)
05.12.2021 23:35 1,6 C 7,2 C 1,1 C 1,5 C 1,2 C 0,0 C 88 % 93 % 1010,8 hPa 0,0 l/m 0,0 km/h (0 Bft) S 180 0 min -0,2 C 1,2 C 0,0 km/h (0 Bft)
05.12.2021 23:40 1,6 C 7,2 C 1,2 C 1,5 C 1,2 C 0,0 C 88 % 93 % 1010,8 hPa 0,0 l/m 0,0 km/h (0 Bft) S 180 0 min -0,2 C 1,2 C 0,0 km/h (0 Bft)
05.12.2021 23:45 1,6 C 7,2 C 1,2 C 1,5 C 1,3 C 0,0 C 88 % 93 % 1010,8 hPa 0,0 l/m 0,2 km/h (0 Bft) S 180 0 min -0,2 C 1,3 C 0,0 km/h (0 Bft)
05.12.2021 23:50 1,6 C 7,4 C 1,2 C 1,5 C 1,3 C 0,0 C 88 % 93 % 1011,0 hPa 0,0 l/m 0,2 km/h (0 Bft) S 180 0 min -0,2 C 1,3 C 0,0 km/h (0 Bft)
05.12.2021 23:55 1,6 C 7,4 C 1,1 C 1,5 C 1,2 C 0,0 C 88 % 93 % 1011,0 hPa 0,0 l/m 0,0 km/h (0 Bft) S 180 0 min -0,2 C 1,2 C 0,0 km/h (0 Bft)
_ Min-Zeit 22:13 00:00 23:20 23:30 23:30 00:20 13:45 12:30 00:10 - 10:05 - - - 22:13 00:55 06:05
Minimum _ 1,6 C 6,9 C 1,1 C 1,4 C 1,1 C 0,0 C 82 % 88 % 1000,0 hPa - 0,0 km/h (0 Bft) - - - -0,2 C -1,1 C 0,0 km/h (0 Bft)
_ Max-Zeit 13:50 18:15 12:15 12:30 12:30 12:20 00:00 00:10 22:11 00:00 00:50 - - 00:00 12:35 12:30 01:25
Maximum _ 4,9 C 7,5 C 4,8 C 6,8 C 6,8 C 2,5 C 89 % 95 % 1011,2 hPa 0,0 l/m 7,7 km/h
SW (2 Bft)
- - 0 min 2,3 C 6,8 C 15,9 km/h
W-SW (3 Bft)
Durchschnitt _ 2,9 C 7,1 C 2,4 C 3,1 C 2,8 C 0,3 C 87 % 92 % 1006,0 hPa #0,0 l/m 2,1 km/h (1 Bft) SW - #0 min. 1,0 C 2,5 C 2,7 km/h (1 Bft)
2021 www.wetterstation-wechselburg.de